Regional Weather Roundup
Issued by NWS

Home | Current Version | Previous Version | Text Only | Print | Product List | Glossary On
Versions: 1 2 3 4 5 6 7 8 9 10 11 12 13 14 15 16 17 18 19 20 21 22 23 24 25 26 27 28 29 30 31 32 33 34 35 36 37 38 39 40 41 42 43 44 45 46 47 48 49 50
000
ASCA44 KEWX 190020
RWRMX

LATIN AMERICA AND CARIBBEAN REGIONAL WEATHER ROUNDUP
NATIONAL WEATHER SERVICE AUSTIN/SAN ANTONIO TX
700 PM CDT SAT APR 18 2015

NOTE: "FAIR" INDICATED FEW OR NO CLOUDS BELOW 12,000 FEET WITH NO
SIGNIFICANT WEATHER AND/OR OBSTRUCTIONS TO VISIBILITY.

BAJA CALIFORNIA

CITY           SKY/WX    TMP DP  RH WIND       PRES   REMARKS
LORETO         MOSUNNY   77  55  47 NE12      29.86F
LA PAZ         PTSUNNY   84  36  17 N14       29.88
MEXICALI       SUNNY     91  23   8 SE5       29.81
S.J. DEL CABO  PTSUNNY   79  54  41 SE13      29.89R
TIJUANA        SUNNY     75  34  22 W14       29.97S

NORTHWESTERN MEXICO

CITY           SKY/WX    TMP DP  RH WIND       PRES   REMARKS
CULIACAN       PTSUNNY   90  66  45 W12       29.84  HX  92
DURANGO        PTSUNNY   73  37  27 SW22      30.04
GUAYMAS        MOSUNNY   81  45  28 S14       29.81
HERMOSILLO     SUNNY     91  19   7 S7        29.85
CD. JUAREZ     SUNNY     75  30  19 W20       29.86
LOS MOCHIS     MOSUNNY   84  36  17 NW16      29.86F
OBREGON        PTSUNNY   86  30  13 W12       29.81

NORTHEASTERN MEXICO

CITY           SKY/WX    TMP DP  RH WIND       PRES   REMARKS
CHIHUAHUA      MOSUNNY   79  23  12 SW8       29.91
MATAMOROS      PTSUNNY   77  70  78 E7        29.79
MONTERREY      PTSUNNY   79  68  69 E14       29.77R
NUEVO LAREDO   SUNNY     84  70  61 CALM      29.75
PIEDRAS NEGRAS PTSUNNY   81  68  65 CALM      29.77R
REYNOSA        MOSUNNY   75  64  69 SE7       29.77
SALTILLO       PTSUNNY   75  50  41 CALM      29.95S
TORREON        MOSUNNY   84  39  20 CALM      29.87F
CD. VICTORIA   PTSUNNY   86  63  45 S12       29.75

WESTERN MEXICO

CITY           SKY/WX    TMP DP  RH WIND       PRES   REMARKS
AGUASCALIENTES PTSUNNY   72  34  25 W17       30.10
COLIMA         MOSUNNY   77  55  47 CALM      29.91S
GUADALAJARA    PTSUNNY   82  34  17 W10       30.02
MANZANILLO     MOSUNNY   81  73  78 W12       29.77F
MAZATLAN       PTSUNNY   79  61  53 W15       29.80F
P. VALLARTA    PTSUNNY   81  72  74 SW12      29.83S
URUAPAN        SUNNY     77  50  38 CALM      30.07S
ZACATECAS      PTSUNNY   68  43  40 W23       30.13S

CENTRAL MEXICO

CITY           SKY/WX    TMP DP  RH WIND       PRES   REMARKS
CUERNAVACA     MOSUNNY   91  36  14 S12       29.91S
MEXICO CITY    MOSUNNY   79  43  27 S10       30.14R
MORELIA        MOSUNNY   77  45  31 S12       30.09
POZA RICA      CLOUDY    84  77  79 E12       29.77S THUNDER HX  94
PUEBLA         MOSUNNY   75  41  29 S20       30.14S
QUERETARO      MOSUNNY   79  45  29 W17       30.12R
S. LUIS POTOSI CLOUDY    79  39  24 NW8       30.06R
TAMPICO        PTSUNNY   77  72  83 E12       29.75F
TOLUCA         MOSUNNY   72  34  25 S15       30.25S

SOUTHERN MEXICO

CITY           SKY/WX    TMP DP  RH WIND       PRES   REMARKS
ACAPULCO       SUNNY     82  75  78 W10       29.78S
B. DE HUATULCO PTCLDY    84  72  65 SW12      29.82R
OAXACA         MOCLDY    84  48  28 S15       29.99F
P. ESCONDIDO   PTCLDY    81  77  89 W9        29.95S
VERACRUZ       CLOUDY    82  73  74 N17       29.73R FOG
ZIHUATANEJO    MOSUNNY   84  75  74 SW6       29.80S HX  92

YUCATAN PENINSULA

CITY           SKY/WX    TMP DP  RH WIND       PRES   REMARKS
CAMPECHE       PTCLDY    88  79  74 NW12      29.72R HX 102
CANCUN         MOCLDY    82  73  74 SE15      29.88R
CHETUMAL       PTCLDY    84  73  70 SE12      29.80  HX  91
CD. DEL CARMEN CLEAR     88  79  74 N12       29.72  HX 102
COZUMEL        MOCLDY    79  73  83 SE10      29.88R
MERIDA         MOCLDY    99  61  28 S6        29.74R HX  99
MINATITLAN     CLOUDY    84  70  61 N17       29.68
TAPACHULA      CLOUDY    82  75  78 CALM      29.84R
TUX. GUTIERREZ PTCLDY    90  63  40 W10       29.79R HX  90
VILLAHERMOSA   CLEAR     93  72  49 NE5       29.73R HX 100

CENTRAL AMERICA

CITY           SKY/WX    TMP DP  RH WIND       PRES   REMARKS
BELIZE CITY    PTCLDY    82  77  83 E7        29.79S HX  91
MANAGUA        PTCLDY    88  70  55 SE12      29.74R HX  92

CARIBBEAN

CITY           SKY/WX    TMP DP  RH WIND       PRES   REMARKS
ARUBA          PTCLDY    81  75  83 E23       29.83S
CURACAO        PTCLDY    81  75  83 E14       29.89S
KINGSTON       PTCLDY    82  73  74 SE20      29.92R
NASSAU         MOCLDY    79  75  89 NW5       29.99R
SAN JUAN       CLEAR     79  73  83 E7        30.01R
SANTO DOMINGO  PTCLDY    79  72  78 SE6       29.97R
ST. CROIX      CLEAR     79  72  78 E10       30.02
ST. KITTS      PTCLDY    79  72  78 E16       30.03R
ST. MAARTEN    PTCLDY    79  72  78 E12       30.03R

$$



USA.gov is the U.S. government's official web portal to all federal, state and local government web resources and services.